| time (UTC) | temp F | wind direction | speed MPH | gust MPH | rain 1hr in | rain 24hr in | rain mn in | humidity % | barometer mb |
| 20260902140542 | 69 | 279 | 1.0 | 4.0 | 0.00 | 0.03 | 0.00 | 93 | 1019.2 |
| 20260902135047 | 69 | 25 | 1.0 | 2.0 | 0.00 | 0.03 | 0.00 | 94 | 1018.9 |
| 20260902133536 | 68 | 13 | 1.0 | 2.0 | 0.00 | 0.03 | 0.00 | 94 | 1019.0 |
| 20260902132042 | 68 | 248 | 0.0 | 2.0 | 0.00 | 0.03 | 0.00 | 94 | 1018.9 |
| 20260902130530 | 68 | 200 | 0.0 | 2.0 | 0.00 | 0.03 | 0.00 | 94 | 1018.8 |
| 20260902125054 | 68 | 81 | 0.0 | 2.0 | 0.00 | 0.03 | 0.00 | 94 | 1018.9 |
| 20260902123543 | 68 | 320 | 0.0 | 2.0 | 0.00 | 0.03 | 0.00 | 95 | 1018.7 |
| 20260902122030 | 68 | 17 | 0.0 | 0.0 | 0.00 | 0.03 | 0.00 | 95 | 1018.7 |
| 20260902120540 | 68 | 169 | 0.0 | 0.0 | 0.00 | 0.03 | 0.00 | 95 | 1018.6 |
| 20260902115043 | 68 | 169 | 0.0 | 3.0 | 0.00 | 0.03 | 0.00 | 94 | 1018.7 |
| 20260902113527 | 68 | 90 | 0.0 | 0.0 | 0.00 | 0.03 | 0.00 | 95 | 1018.7 |
| 20260902112036 | 68 | 96 | 0.0 | 0.0 | 0.00 | 0.03 | 0.00 | 94 | 1018.6 |
| 20260902110543 | 69 | 96 | 0.0 | 1.0 | 0.00 | 0.03 | 0.00 | 94 | 1018.3 |
| 20260902105048 | 69 | 96 | 0.0 | 1.0 | 0.00 | 0.03 | 0.00 | 94 | 1018.2 |
| 20260902103600 | 69 | 150 | 0.0 | 0.0 | 0.00 | 0.03 | 0.00 | 94 | 1018.1 |
| 20260902102029 | 69 | 150 | 0.0 | 0.0 | 0.00 | 0.03 | 0.00 | 94 | 1018.1 |
| 20260902100535 | 69 | 150 | 0.0 | 1.0 | 0.00 | 0.03 | 0.00 | 94 | 1018.0 |
| 20260902095053 | 69 | 269 | 0.0 | 1.0 | 0.00 | 0.03 | 0.00 | 94 | 1018.0 |
| 20260902093542 | 69 | 300 | 0.0 | 0.0 | 0.00 | 0.03 | 0.00 | 95 | 1018.0 |
| 20260902092052 | 69 | 300 | 0.0 | 1.0 | 0.00 | 0.03 | 0.00 | 95 | 1018.0 |
| 20260902090600 | 70 | 315 | 0.0 | 0.0 | 0.00 | 0.03 | 0.00 | 95 | 1017.7 |
| 20260902085043 | 70 | 315 | 0.0 | 0.0 | 0.00 | 0.03 | 0.00 | 96 | 1017.6 |
| 20260902083530 | 70 | 214 | 0.0 | 1.0 | 0.00 | 0.03 | 0.00 | 96 | 1017.3 |
| 20260902082043 | 70 | 7 | 0.0 | 3.0 | 0.00 | 0.03 | 0.00 | 96 | 1017.2 |
| 20260902080530 | 71 | 352 | 0.0 | 0.0 | 0.00 | 0.03 | 0.00 | 96 | 1017.1 |
| 20260902075032 | 71 | 352 | 0.0 | 0.0 | 0.00 | 0.03 | 0.00 | 96 | 1016.9 |
| 20260902073541 | 72 | 352 | 0.0 | 1.0 | 0.00 | 0.03 | 0.00 | 96 | 1016.9 |
| 20260902072031 | 72 | 352 | 0.0 | 2.0 | 0.00 | 0.03 | 0.00 | 96 | 1016.8 |
| 20260902070541 | 72 | 354 | 0.0 | 1.0 | 0.00 | 0.03 | 0.00 | 96 | 1016.8 |
| 20260902065036 | 72 | 335 | 0.0 | 1.0 | 0.00 | 0.03 | 0.00 | 96 | 1016.8 |
| 20260902063540 | 72 | 15 | 1.0 | 2.0 | 0.00 | 0.03 | 0.00 | 96 | 1016.6 |
| 20260902062047 | 72 | 227 | 0.0 | 1.0 | 0.00 | 0.03 | 0.00 | 96 | 1017.0 |
| 20260902060550 | 72 | 228 | 0.0 | 2.0 | 0.00 | 0.03 | 0.00 | 96 | 1017.1 |
| 20260902055054 | 73 | 319 | 0.0 | 3.0 | 0.00 | 0.03 | 0.00 | 96 | 1017.1 |
| 20260902053543 | 73 | 303 | 0.0 | 4.0 | 0.00 | 0.03 | 0.00 | 96 | 1017.0 |
| 20260902052032 | 73 | 313 | 0.0 | 1.0 | 0.00 | 0.03 | 0.00 | 96 | 1016.9 |
| 20260902050543 | 73 | 313 | 0.0 | 1.0 | 0.00 | 0.03 | 0.00 | 96 | 1016.9 |
| 20260902045044 | 73 | 314 | 0.0 | 5.0 | 0.00 | 0.03 | 0.00 | 97 | 1016.9 |
| 20260902043535 | 72 | 321 | 2.0 | 4.0 | 0.00 | 0.03 | 0.00 | 97 | 1016.7 |
| 20260902042044 | 72 | 279 | 1.0 | 3.0 | 0.00 | 0.03 | 0.00 | 96 | 1016.7 |
| 20260902040553 | 72 | 354 | 0.0 | 0.0 | 0.00 | 0.03 | 0.00 | 96 | 1016.6 |
| 20260902035031 | 72 | 354 | 0.0 | 0.0 | 0.00 | 0.03 | 0.03 | 96 | 1016.6 |
| 20260902033541 | 72 | 13 | 0.0 | 0.0 | 0.00 | 0.03 | 0.03 | 96 | 1016.1 |
| 20260902032029 | 71 | 34 | 0.0 | 1.0 | 0.00 | 0.03 | 0.03 | 96 | 1016.0 |
| 20260902030538 | 71 | 34 | 0.0 | 1.0 | 0.00 | 0.03 | 0.03 | 95 | 1016.0 |
| 20260902025057 | 71 | 34 | 0.0 | 0.0 | 0.00 | 0.03 | 0.03 | 95 | 1015.2 |
| 20260902023544 | 72 | 34 | 0.0 | 0.0 | 0.00 | 0.03 | 0.03 | 94 | 1015.0 |
| 20260902022033 | 72 | 34 | 0.0 | 0.0 | 0.00 | 0.03 | 0.03 | 94 | 1014.9 |
| 20260902020542 | 72 | 34 | 0.0 | 0.0 | 0.00 | 0.03 | 0.03 | 94 | 1014.6 |
| 20260902015045 | 73 | 34 | 0.0 | 0.0 | 0.00 | 0.03 | 0.03 | 94 | 1014.4 |
| 20260902013534 | 73 | 34 | 0.0 | 0.0 | 0.00 | 0.03 | 0.03 | 93 | 1014.2 |
| 20260902012045 | 73 | 34 | 0.0 | 0.0 | 0.00 | 0.03 | 0.03 | 93 | 1014.5 |
| 20260902010533 | 73 | 34 | 0.0 | 1.0 | 0.00 | 0.03 | 0.03 | 93 | 1014.9 |
| 20260902005156 | 73 | 334 | 0.0 | 4.0 | 0.00 | 0.03 | 0.03 | 93 | 1015.1 |
| 20260902003551 | 73 | 94 | 0.0 | 0.0 | 0.00 | 0.03 | 0.03 | 92 | 1014.2 |
| 20260902002034 | 74 | 94 | 0.0 | 0.0 | 0.00 | 0.03 | 0.03 | 91 | 1013.7 |
| 20260902000547 | 75 | 94 | 0.0 | 0.0 | 0.00 | 0.03 | 0.03 | 91 | 1013.8 |
| 20260901235029 | 75 | 94 | 0.0 | 0.0 | 0.00 | 0.03 | 0.03 | 91 | 1013.8 |
| 20260901233531 | 76 | 94 | 0.0 | 0.0 | 0.00 | 0.03 | 0.03 | 90 | 1013.2 |
| 20260901232043 | 76 | 94 | 0.0 | 0.0 | 0.00 | 0.03 | 0.03 | 89 | 1012.9 |
| 20260901230534 | 77 | 94 | 0.0 | 1.0 | 0.00 | 0.03 | 0.03 | 88 | 1013.0 |
| 20260901225038 | 78 | 94 | 0.0 | 0.0 | 0.00 | 0.03 | 0.03 | 89 | 1013.2 |
| 20260901223536 | 78 | 94 | 0.0 | 3.0 | 0.00 | 0.03 | 0.03 | 89 | 1013.5 |
| 20260901222047 | 79 | 55 | 1.0 | 2.0 | 0.00 | 0.03 | 0.03 | 90 | 1013.3 |
| 20260901220556 | 80 | 310 | 0.0 | 0.0 | 0.00 | 0.03 | 0.03 | 89 | 1012.8 |
| 20260901215100 | 81 | 310 | 0.0 | 0.0 | 0.00 | 0.03 | 0.03 | 87 | 1012.2 |
| 20260901213553 | 82 | 310 | 0.0 | 0.0 | 0.00 | 0.03 | 0.03 | 83 | 1012.5 |
| 20260901212043 | 83 | 310 | 0.0 | 0.0 | 0.00 | 0.03 | 0.03 | 81 | 1012.7 |
| 20260901210532 | 84 | 310 | 0.0 | 2.0 | 0.00 | 0.03 | 0.03 | 81 | 1012.6 |
| 20260901205055 | 85 | 258 | 1.0 | 5.0 | 0.00 | 0.03 | 0.03 | 77 | 1012.3 |
| 20260901203538 | 85 | 281 | 2.0 | 7.0 | 0.00 | 0.03 | 0.03 | 78 | 1012.4 |
| 20260901202043 | 85 | 241 | 3.0 | 6.0 | 0.00 | 0.03 | 0.03 | 77 | 1012.6 |
| 20260901200552 | 84 | 10 | 3.0 | 9.0 | 0.00 | 0.03 | 0.03 | 79 | 1012.7 |
| 20260901195032 | 84 | 317 | 1.0 | 3.0 | 0.00 | 0.04 | 0.03 | 82 | 1012.6 |
| 20260901193539 | 84 | 250 | 1.0 | 7.0 | 0.00 | 0.04 | 0.03 | 82 | 1012.8 |
| 20260901192028 | 84 | 4 | 1.0 | 4.0 | 0.00 | 0.04 | 0.03 | 83 | 1013.2 |
| 20260901190534 | 83 | 24 | 0.0 | 3.0 | 0.00 | 0.04 | 0.03 | 84 | 1013.1 |
| 20260901185037 | 83 | 210 | 1.0 | 2.0 | 0.00 | 0.04 | 0.03 | 85 | 1013.4 |
| 20260901183542 | 83 | 55 | 0.0 | 3.0 | 0.00 | 0.04 | 0.03 | 83 | 1013.3 |
| 20260901182031 | 83 | 351 | 1.0 | 3.0 | 0.00 | 0.04 | 0.03 | 85 | 1013.4 |
| 20260901180536 | 82 | 271 | 1.0 | 4.0 | 0.00 | 0.04 | 0.03 | 84 | 1013.3 |
| 20260901175041 | 82 | 302 | 2.0 | 5.0 | 0.00 | 0.04 | 0.03 | 83 | 1013.3 |
| 20260901173546 | 81 | 335 | 1.0 | 3.0 | 0.00 | 0.04 | 0.03 | 86 | 1013.4 |
| 20260901172054 | 79 | 325 | 1.0 | 4.0 | 0.00 | 0.04 | 0.03 | 92 | 1013.5 |
| 20260901170542 | 78 | 347 | 1.0 | 3.0 | 0.00 | 0.04 | 0.03 | 93 | 1013.7 |
| 20260901165042 | 77 | 333 | 1.0 | 2.0 | 0.00 | 0.04 | 0.03 | 94 | 1014.0 |
| 20260901163549 | 77 | 27 | 1.0 | 3.0 | 0.00 | 0.04 | 0.03 | 94 | 1014.3 |
| 20260901162058 | 77 | 76 | 0.0 | 4.0 | 0.00 | 0.04 | 0.03 | 94 | 1014.2 |
| 20260901160539 | 76 | 82 | 1.0 | 3.0 | 0.00 | 0.04 | 0.03 | 95 | 1014.4 |
| 20260901155039 | 76 | 334 | 1.0 | 3.0 | 0.00 | 0.04 | 0.03 | 96 | 1014.6 |
| 20260901153542 | 75 | 300 | 0.0 | 2.0 | 0.02 | 0.04 | 0.03 | 97 | 1014.8 |
| 20260901152029 | 75 | 300 | 0.0 | 0.0 | 0.03 | 0.04 | 0.03 | 96 | 1014.7 |
| 20260901150536 | 74 | 300 | 0.0 | 0.0 | 0.03 | 0.04 | 0.03 | 96 | 1014.9 |
| 20260901145028 | 74 | 300 | 0.0 | 0.0 | 0.03 | 0.04 | 0.03 | 95 | 1014.8 |
| 20260901143603 | 75 | 300 | 0.0 | 2.0 | 0.01 | 0.02 | 0.01 | 95 | 1014.9 |
| 20260901142046 | 75 | 300 | 0.0 | 2.0 | 0.00 | 0.01 | 0.00 | 94 | 1014.8 |